Location: Sungai Bunut
(2.6333°N, 113.7333°E)
Time: 19:58:42
(UTC+00:00)

deb Explorer IX - All Passes

Search period start: 06 December 2023 00:00
Search period end: 16 December 2023 00:00
Orbit: 524 x 934 km, 38.8° (Epoch: 05 December)

Date Brightness Start Highest point End Pass type
(mag) Time Alt. Az. Time Alt. Az. Time Alt. Az.
06 Dec - 09:29:51 10° SW 09:34:10 84° NW 09:38:11 10° NE daylight
06 Dec - 20:08:10 10° NNW 20:13:34 46° NE 20:19:29 10° ESE visible
06 Dec - 21:53:24 10° W 21:58:38 31° SW 22:04:10 10° SSE visible
07 Dec - 08:37:59 10° SW 08:42:22 50° SE 08:46:21 10° ENE daylight
07 Dec - 10:24:42 10° WNW 10:26:54 14° NW 10:29:04 10° N daylight
07 Dec - 19:16:51 10° NNW 19:21:30 28° NE 19:26:34 10° E visible
07 Dec - 21:00:54 10° WNW 21:06:27 48° SW 21:12:29 10° SSE visible
08 Dec - 07:46:22 10° SSW 07:50:26 28° SE 07:54:08 10° E daylight
08 Dec - 09:31:24 10° W 09:35:01 26° NW 09:38:26 10° NNE daylight
08 Dec - 18:26:02 10° N 18:29:24 17° NE 18:33:02 10° E visible
08 Dec - 20:08:44 10° NW 20:14:17 76° SW 20:20:26 10° SE visible
08 Dec - 21:56:50 10° WSW 21:59:37 13° SW 22:02:27 10° S visible
09 Dec - 06:55:06 10° S 06:58:21 18° SE 07:01:23 10° E daylight
09 Dec - 08:38:43 10° WSW 08:43:09 48° NW 08:47:10 10° NNE daylight
09 Dec - 19:16:50 10° NW 19:22:07 68° NE 19:28:04 10° SE visible
09 Dec - 21:03:04 10° W 21:07:16 20° SW 21:11:43 10° S visible
10 Dec - 06:04:50 10° SSE 06:06:09 11° SE 06:07:25 10° SE daylight
10 Dec - 07:46:21 10° SW 07:51:12 89° SE 07:55:29 10° NE daylight
10 Dec - 18:25:14 10° NNW 18:30:00 40° NE 18:35:20 10° ESE visible
10 Dec - 20:10:06 10° W 20:14:56 31° SW 20:20:13 10° SSE visible
11 Dec - 06:54:13 10° SW 06:59:08 49° SE 07:03:28 10° ENE daylight
11 Dec - 08:40:42 10° W 08:43:42 17° NW 08:46:32 10° N daylight
11 Dec - 17:33:58 10° NNW 17:37:51 23° NE 17:42:07 10° E night (unlit)
11 Dec - 19:17:35 10° WNW 19:22:37 49° SW 19:28:18 10° SSE visible
12 Dec - 06:02:19 10° SSW 06:06:56 30° SE 06:11:03 10° E daylight
12 Dec - 07:47:20 10° WSW 07:51:39 31° NW 07:55:32 10° NNE daylight
12 Dec - 16:43:25 10° NNE 16:45:41 13° NE 16:48:03 10° ENE night (unlit)
12 Dec - 18:25:23 10° NW 18:30:22 81° SW 18:36:03 10° SE visible
12 Dec - 20:13:13 10° WSW 20:15:37 13° SW 20:18:06 10° S visible
13 Dec - 05:10:46 10° S 05:14:35 19° SE 05:18:08 10° E daylight
13 Dec - 06:54:27 10° WSW 06:59:32 57° NW 07:04:00 10° NE daylight
13 Dec - 17:33:27 10° NW 17:38:08 59° NE 17:43:28 10° ESE night (unlit)
13 Dec - 19:19:22 10° W 19:23:08 20° SW 19:27:12 10° S visible
14 Dec - 04:19:57 10° SSE 04:22:07 12° SE 04:24:13 10° ESE daylight
14 Dec - 06:01:52 10° SW 06:07:20 82° SE 06:12:05 10° NE daylight
14 Dec - 07:50:08 10° WNW 07:51:57 12° NW 07:53:42 10° NNW daylight
14 Dec - 16:41:50 10° NNW 16:45:56 33° NE 16:50:31 10° ESE night (unlit)
14 Dec - 18:26:22 10° W 18:30:42 30° SW 18:35:32 10° SSE visible
15 Dec - 05:09:31 10° SSW 05:15:00 48° SE 05:19:49 10° ENE daylight
15 Dec - 06:55:44 10° W 06:59:41 22° NW 07:03:18 10° N daylight
15 Dec - 15:50:37 10° N 15:53:43 18° NE 15:57:01 10° E night (unlit)
15 Dec - 17:33:47 10° WNW 17:38:19 50° SW 17:43:27 10° SE night (unlit)
